TimeEDT,TemperatureF,Dew PointF,Humidity,Sea Level PressureIn,VisibilityMPH,Wind Direction,Wind SpeedMPH,Gust SpeedMPH,PrecipitationIn,Events,Conditions,WindDirDegrees,DateUTC
12:54 AM,48.9,43.0,80,30.02,10.0,NNW,4.6,-,N/A,,Overcast,330,2013-09-14 04:54:00
1:54 AM,48.9,43.0,80,30.03,10.0,NW,6.9,-,N/A,,Overcast,320,2013-09-14 05:54:00
2:54 AM,48.9,44.1,83,30.03,10.0,NW,6.9,-,N/A,,Overcast,310,2013-09-14 06:54:00
3:54 AM,48.0,44.1,86,30.03,10.0,NW,8.1,-,N/A,,Overcast,310,2013-09-14 07:54:00
4:54 AM,48.0,44.1,86,30.04,10.0,NNW,4.6,-,N/A,,Overcast,330,2013-09-14 08:54:00
5:54 AM,48.0,44.1,86,30.06,10.0,NW,9.2,-,0.00,,Overcast,310,2013-09-14 09:54:00
6:54 AM,48.0,44.1,86,30.08,10.0,NW,5.8,-,N/A,,Overcast,320,2013-09-14 10:54:00
7:54 AM,48.0,44.1,86,30.11,10.0,NW,5.8,-,N/A,,Overcast,320,2013-09-14 11:54:00
8:24 AM,48.2,44.6,87,30.10,10.0,NW,4.6,-,N/A,,Overcast,320,2013-09-14 12:24:00
8:54 AM,48.9,43.0,80,30.12,10.0,NNW,4.6,-,N/A,,Overcast,340,2013-09-14 12:54:00
9:54 AM,50.0,41.0,71,30.14,10.0,NNW,5.8,-,N/A,,Overcast,340,2013-09-14 13:54:00
10:54 AM,50.0,41.0,71,30.15,10.0,NNW,5.8,-,N/A,,Overcast,340,2013-09-14 14:54:00
11:54 AM,54.0,42.1,64,30.15,10.0,Variable,4.6,-,N/A,,Overcast,0,2013-09-14 15:54:00
12:54 PM,57.9,41.0,53,30.13,10.0,WNW,5.8,-,N/A,,Mostly Cloudy,290,2013-09-14 16:54:00
1:54 PM,61.0,42.1,50,30.11,10.0,Variable,6.9,-,N/A,,Scattered Clouds,0,2013-09-14 17:54:00
2:54 PM,63.0,41.0,45,30.10,10.0,WNW,8.1,-,N/A,,Clear,290,2013-09-14 18:54:00
3:54 PM,64.0,39.0,40,30.09,10.0,Variable,4.6,-,N/A,,Clear,0,2013-09-14 19:54:00
4:54 PM,64.9,41.0,42,30.09,10.0,WNW,9.2,-,N/A,,Clear,290,2013-09-14 20:54:00
5:54 PM,64.0,37.9,38,30.10,10.0,NW,10.4,-,N/A,,Clear,310,2013-09-14 21:54:00
6:54 PM,61.0,39.9,46,30.12,10.0,West,3.5,-,N/A,,Clear,280,2013-09-14 22:54:00
7:54 PM,52.0,45.0,77,30.14,10.0,North,4.6,-,N/A,,Clear,350,2013-09-14 23:54:00
8:54 PM,48.9,45.0,86,30.16,10.0,Calm,Calm,-,N/A,,Clear,0,2013-09-15 00:54:00
9:54 PM,46.9,44.1,90,30.17,10.0,North,3.5,-,N/A,,Clear,350,2013-09-15 01:54:00
10:54 PM,45.0,43.0,93,30.18,10.0,North,3.5,-,N/A,,Clear,360,2013-09-15 02:54:00
11:54 PM,44.1,43.0,96,30.19,10.0,Calm,Calm,-,N/A,,Clear,0,2013-09-15 03:54:00